Regional Weather Roundup
Issued by NWS

Home | Current Version | Previous Version | Graphics & Text | Print | Product List | Glossary On
Versions: 1 2 3 4 5 6 7 8 9 10 11 12 13 14 15 16 17 18 19 20 21 22 23 24 25 26 27 28 29 30 31 32 33 34 35 36 37 38 39 40 41 42 43 44 45 46 47 48 49 50
000
ASUS43 KLMK 210302
RWRKY
KENTUCKY REGIONAL WEATHER ROUNDUP
NATIONAL WEATHER SERVICE LOUISVILLE KY
1100 PM EDT SAT SEP 20 2014

NOTE "FAIR" INDICATES FEW OR NO CLOUDS BELOW 12,000 FEET
WITH NO SIGNIFICANT WEATHER AND/OR OBSTRUCTIONS TO VISIBILITY.

KYZ001>023-026-027-061>063-070>075-210400-
WESTERN AND SOUTH CENTRAL KENTUCKY

CITY           SKY/WX    TMP DP  RH WIND       PRES   REMARKS
PADUCAH        CLEAR     77  68  73 SW6       29.97S
HENDERSON      CLEAR     66  61  82 S5        29.96F
OWENSBORO      CLEAR     71  65  81 S3        29.98S
HOPKINSVILLE   CLEAR     72  70  95 SW3       30.01R
BOWLING GREEN  CLEAR     68  66  93 CALM      30.01S
GLASGOW        CLEAR     69  67  96 CALM      30.02R
$$

KYZ024-025-028>034-038-045-046-053-210400-
NORTH CENTRAL KENTUCKY

CITY           SKY/WX    TMP DP  RH WIND       PRES   REMARKS
LOUISVILLE/SDF CLOUDY    75  65  70 S8        29.96F
LOUISVILLE/LOU CLEAR     73  66  78 S3        29.97F
FORT KNOX      PTCLDY    69  65  88 S7        29.98F
$$

KYZ035>037-039>044-047>052-055>060-089>105-210400-
NORTHEAST KENTUCKY

CITY           SKY/WX    TMP DP  RH WIND       PRES   REMARKS
LEXINGTON      CLEAR     71  64  78 S6        30.01F
COVINGTON      CLOUDY    71  64  78 S9        29.96F
FRANKFORT      PTCLDY    70  64  81 S7        29.98F
$$

KYZ054-064>069-076>088-106>120-210400-
SOUTHEAST KENTUCKY

CITY           SKY/WX    TMP DP  RH WIND       PRES   REMARKS
JACKSON        CLEAR     69  63  81 CALM      30.05F
LONDON         CLEAR     67  63  87 CALM      30.06S
SOMERSET       CLEAR     64  64 100 CALM      30.05S
MIDDLESBORO    CLEAR     62  61  94 CALM      30.09S
MONTICELLO     CLEAR     64  63  97 CALM      30.05F
$$




USA.gov is the U.S. government's official web portal to all federal, state and local government web resources and services.